This is the latest recevied weather packets stored in our database for station/object WB6ANP. If no packets are shown the sender has not sent any weather packets the latest 10 day(s).
| Time | Temp. | Humidity | Pressure | Rain* | Wind** | Luminosity | Snow |
|---|---|---|---|---|---|---|---|
| 1778010263 | 30.56° C | 47% | 1005.4 hPa | 0 mm | - | 1086 W/m² | - |
| 1778009963 | 30.56° C | 47% | 1005.4 hPa | 0 mm | - | 928 W/m² | - |
| 1778009661 | 30.56° C | 50% | 1005.4 hPa | 0 mm | - | 421 W/m² | - |
| 1778009358 | 30.56° C | 51% | 1005.4 hPa | 0 mm | - | 497 W/m² | - |
| 1778009056 | 30.56° C | 49% | 1005.4 hPa | 0 mm | - | 504 W/m² | - |
| 1778008754 | 30.56° C | 51% | 1005.4 hPa | 0 mm | - | 773 W/m² | - |
| 1778008452 | 30.56° C | 52% | 1005.3 hPa | 0 mm | - | 640 W/m² | - |
| 1778008149 | 30.56° C | 51% | 1005.5 hPa | 0 mm | - | 926 W/m² | - |
| 1778007844 | 30.56° C | 53% | 1005 hPa | 0 mm | - | 1091 W/m² | - |
| 1778007539 | 30° C | 53% | 1005.1 hPa | 0 mm | - | 910 W/m² | - |
| 1778007236 | 30° C | 53% | 1005.3 hPa | 0 mm | - | 862 W/m² | - |
| 1778006933 | 29.44° C | 55% | 1005.3 hPa | 0 mm | - | 760 W/m² | - |
| 1778006630 | 30° C | 56% | 1005.1 hPa | 0 mm | - | 1023 W/m² | - |
| 1778006327 | 29.44° C | 56% | 1004.9 hPa | 0 mm | - | 930 W/m² | - |
| 1778006024 | 29.44° C | 55% | 1005.3 hPa | 0 mm | - | 934 W/m² | - |
| 1778005720 | 28.89° C | 57% | 1005.3 hPa | 0 mm | - | 799 W/m² | - |
| 1778005417 | 28.89° C | 56% | 1005.3 hPa | 0 mm | - | 726 W/m² | - |
| 1778005114 | 28.89° C | 59% | 1005.1 hPa | 0 mm | - | 746 W/m² | - |
| 1778004811 | 28.89° C | 59% | 1005.4 hPa | 0 mm | - | 591 W/m² | - |
| 1778004507 | 28.33° C | 59% | 1005.4 hPa | 0 mm | - | 764 W/m² | - |
| 1778004204 | 28.33° C | 60% | 1005.4 hPa | 0 mm | - | 630 W/m² | - |
| 1778003901 | 27.78° C | 59% | 1005.4 hPa | 0 mm | - | 577 W/m² | - |
| 1778003597 | 28.33° C | 59% | 1005.4 hPa | 0 mm | - | 533 W/m² | - |
| 1778003294 | 28.33° C | 61% | 1005.5 hPa | 0 mm | - | 573 W/m² | - |
| 1778002991 | 28.33° C | 60% | 1005.7 hPa | 0 mm | - | 557 W/m² | - |
* Rain latest hour (hover to see other rain measurements)
** Current wind speed in m/s (hover to see current wind gust speed)